Regional Weather Roundup
Issued by NWS

Home | Current Version | Previous Version | Text Only | Print | Product List | Glossary On
Versions: 1 2 3 4 5 6 7 8 9 10 11 12 13 14 15 16 17 18 19 20 21 22 23 24 25 26 27 28 29 30 31 32 33 34 35 36 37 38 39 40 41 42 43 44 45 46 47 48 49 50
000
ASUS43 KLMK 251310
RWRKY
KENTUCKY REGIONAL WEATHER ROUNDUP
NATIONAL WEATHER SERVICE LOUISVILLE KY
900 AM EDT WED MAY 25 2016

NOTE "FAIR" INDICATES FEW OR NO CLOUDS BELOW 12,000 FEET
WITH NO SIGNIFICANT WEATHER AND/OR OBSTRUCTIONS TO VISIBILITY.

KYZ001>023-026-027-061>063-070>075-251400-
WESTERN AND SOUTH CENTRAL KENTUCKY

CITY           SKY/WX    TMP DP  RH WIND       PRES   REMARKS
PADUCAH        CLOUDY    69  64  84 SW3       30.10R
HENDERSON      CLOUDY    70  63  78 CALM      30.07S
OWENSBORO      LGT RAIN  67  64  90 S8        30.09S
HOPKINSVILLE   NOT AVBL
BOWLING GREEN  CLOUDY    70  60  70 S6        30.13S
GLASGOW        CLOUDY    68  57  69 SE3       30.15S
$$

KYZ024-025-028>034-038-045-046-053-251400-
NORTH CENTRAL KENTUCKY

CITY           SKY/WX    TMP DP  RH WIND       PRES   REMARKS
LOUISVILLE/SDF LGT RAIN  69  58  67 SE7       30.11R
LOUISVILLE/LOU CLOUDY    69  57  65 S5        30.12S
FORT KNOX      NOT AVBL
$$

KYZ035>037-039>044-047>052-055>060-089>105-251400-
NORTHEAST KENTUCKY

CITY           SKY/WX    TMP DP  RH WIND       PRES   REMARKS
LEXINGTON      CLOUDY    65  53  65 S7        30.17R
COVINGTON      CLOUDY    68  54  60 S7        30.13R
FRANKFORT      CLOUDY    66  53  63 S7        30.14R
$$

KYZ054-064>069-076>088-106>120-251400-
SOUTHEAST KENTUCKY

CITY           SKY/WX    TMP DP  RH WIND       PRES   REMARKS
JACKSON        SUNNY     65  52  62 CALM      30.21R
LONDON         SUNNY     66  54  65 SE3       30.21R
SOMERSET       CLOUDY    63  54  72 S5        30.21R
MIDDLESBORO    SUNNY     60  55  83 CALM      30.25R
MONTICELLO     CLOUDY    67  58  72 NE7       30.22R
$$





USA.gov is the U.S. government's official web portal to all federal, state and local government web resources and services.